Tracking 25710 objects as of 6-Jul-2022
HD Live streaming from Space Station
objects crossing your sky now

USA 322

Track USA 322 now!
10-day predictions


NORAD ID: 51078
Int'l Code: 2022-002CY
Perigee: 530.9 km
Apogee: 539.4 km
Inclination: 97.5 °
Period: 95.2 minutes
Semi major axis: 6906 km
RCS: Unknown
Launch date: January 13, 2022
Source: United States (US)
Launch site: AIR FORCE EASTERN TEST RANGE (AFETR)
aabbcc
Your satellite tracking list
Your tracking list is empty




NASA's NSSDC Master Catalog

Two Line Element Set (TLE):
1 51078U 22002CY  22186.46148183  .00002437  00000-0  14290-3 0  9996
2 51078  97.4939 253.2230 0006107 132.6877 227.4869 15.12684605 26137
Source of the keplerian elements: AFSPC